When you browse on this site, cookies collect data to enhance your experience and personalize the content and advertising you see.
Visit our Privacy Policy to learn more. By continuing to use the site, you agree to this use of cookies and data.
  • In Hungary
  • List of Countries
  • For 7 days
  • Water Temperature
  • Satellite Maps
  • Weather Map
  • News
  • Weather Widgets
  • user-avatar
    Login

    Hourly Weather Pitanga

    Today, 19 January, Saturday

    Time Temperature Precipitation Wind Pressure Humidity
    00:00 +19°C° 0 mm 0 mps 684 mmHg 96%
    01:00 +19°C° 0 mm 0 mps 683 mmHg 95%
    02:00 +19°C° 0 mm 0 mps 683 mmHg 95%
    03:00 +19°C° 0 mm 0 mps 683 mmHg 94%
    04:00 +19°C° 0 mm 0 mps 683 mmHg 95%
    05:00 +18°C° 0 mm 0 mps 683 mmHg 95%
    06:00 +18°C° 0 mm 0 mps 683 mmHg 95%
    07:00 +20°C° 0 mm 0 mps 684 mmHg 88%
    08:00 +22°C° 0 mm 0 mps 684 mmHg 81%
    09:00 +26°C° 0 mm 1 mps 685 mmHg 74%
    10:00 +27°C° 0.7 mm 1 mps 685 mmHg 75%
    11:00 +28°C° 0.7 mm 1 mps 685 mmHg 75%
    12:00 +29°C° 0.7 mm 1 mps 685 mmHg 76%
    13:00 +29°C° 2.8 mm 1 mps 684 mmHg 80%
    14:00 +28°C° 2.8 mm 1 mps 684 mmHg 83%
    15:00 +28°C° 2.8 mm 1 mps 684 mmHg 87%
    16:00 +27°C° 1.9 mm 2 mps 683 mmHg 89%
    17:00 +25°C° 1.9 mm 2 mps 683 mmHg 92%
    18:00 +24°C° 1.9 mm 2 mps 682 mmHg 95%
    19:00 +23°C° 0.1 mm 1 mps 683 mmHg 95%
    20:00 +23°C° 0.1 mm 1 mps 683 mmHg 96%
    21:00 +22°C° 0.1 mm 1 mps 683 mmHg 97%
    22:00 +22°C° 0 mm 1 mps 683 mmHg 97%
    23:00 +22°C° 0 mm 1 mps 683 mmHg 97%

    Tomorrow, 20 January, Sunday

    Time Temperature Precipitation Wind Pressure Humidity
    00:00 +19°C° 0 mm 0 mps 683 mmHg 97%
    01:00 +19°C° 0 mm 0 mps 683 mmHg 97%
    02:00 +21°C° 0 mm 1 mps 683 mmHg 97%
    03:00 +21°C° 0 mm 1 mps 682 mmHg 97%
    04:00 +20°C° 0 mm 1 mps 682 mmHg 97%
    05:00 +20°C° 0 mm 1 mps 682 mmHg 98%
    06:00 +20°C° 0 mm 1 mps 683 mmHg 98%
    07:00 +22°C° 0 mm 1 mps 683 mmHg 91%
    08:00 +24°C° 0 mm 1 mps 684 mmHg 85%
    09:00 +26°C° 0 mm 1 mps 685 mmHg 78%
    10:00 +26°C° 0.7 mm 2 mps 685 mmHg 80%
    11:00 +27°C° 0.7 mm 2 mps 685 mmHg 82%
    12:00 +27°C° 0.7 mm 2 mps 685 mmHg 84%
    13:00 +27°C° 1 mm 2 mps 684 mmHg 85%
    14:00 +27°C° 1 mm 2 mps 684 mmHg 86%
    15:00 +27°C° 1 mm 2 mps 684 mmHg 87%
    16:00 +27°C° 0.7 mm 1 mps 683 mmHg 88%
    17:00 +27°C° 0.7 mm 1 mps 683 mmHg 88%
    18:00 +26°C° 0.7 mm 1 mps 683 mmHg 89%
    19:00 +25°C° 0.5 mm 1 mps 683 mmHg 92%
    20:00 +21°C° 0.5 mm 0 mps 683 mmHg 94%
    21:00 +20°C° 0.5 mm 0 mps 683 mmHg 97%
    22:00 +20°C° 0 mm 0 mps 683 mmHg 97%
    23:00 +19°C° 0 mm 0 mps 684 mmHg 97%

    Day after tomorrow, 21 January, Monday

    Time Temperature Precipitation Wind Pressure Humidity
    00:00 +19°C° 0 mm 0 mps 684 mmHg 97%
    01:00 +19°C° 0 mm 0 mps 683 mmHg 98%
    02:00 +19°C° 0 mm 0 mps 683 mmHg 98%
    03:00 +18°C° 0 mm 0 mps 683 mmHg 98%
    04:00 +18°C° 0 mm 0 mps 683 mmHg 98%
    05:00 +18°C° 0 mm 0 mps 683 mmHg 98%
    06:00 +18°C° 0 mm 0 mps 683 mmHg 98%
    07:00 +22°C° 0 mm 1 mps 684 mmHg 93%
    08:00 +24°C° 0 mm 1 mps 685 mmHg 88%
    09:00 +26°C° 0 mm 1 mps 686 mmHg 83%
    10:00 +27°C° 0.2 mm 2 mps 686 mmHg 76%
    11:00 +29°C° 0.2 mm 2 mps 686 mmHg 69%
    12:00 +30°C° 0.2 mm 2 mps 686 mmHg 62%
    13:00 +29°C° 1.3 mm 2 mps 685 mmHg 70%
    14:00 +29°C° 1.3 mm 2 mps 685 mmHg 78%
    15:00 +28°C° 1.3 mm 2 mps 684 mmHg 86%
    16:00 +27°C° 1.2 mm 2 mps 684 mmHg 88%
    17:00 +27°C° 1.2 mm 1 mps 684 mmHg 90%
    18:00 +26°C° 1.2 mm 1 mps 684 mmHg 92%
    19:00 +25°C° 0.1 mm 1 mps 684 mmHg 93%
    20:00 +22°C° 0.1 mm 0 mps 685 mmHg 95%
    21:00 +21°C° 0.1 mm 0 mps 685 mmHg 96%
    22:00 +20°C° 0 mm 0 mps 685 mmHg 97%
    23:00 +20°C° 0 mm 0 mps 685 mmHg 97%

    22 January, Tuesday

    Time Temperature Precipitation Wind Pressure Humidity
    00:00 +20°C° 0 mm 0 mps 685 mmHg 97%
    01:00 +19°C° 0 mm 0 mps 684 mmHg 97%
    02:00 +19°C° 0 mm 0 mps 684 mmHg 98%
    03:00 +19°C° 0 mm 0 mps 684 mmHg 98%
    04:00 +19°C° 0 mm 0 mps 684 mmHg 98%
    05:00 +19°C° 0 mm 0 mps 684 mmHg 98%
    06:00 +19°C° 0 mm 0 mps 684 mmHg 98%
    07:00 +21°C° 0 mm 0 mps 685 mmHg 91%
    08:00 +23°C° 0 mm 0 mps 686 mmHg 85%
    09:00 +27°C° 0 mm 1 mps 687 mmHg 78%
    10:00 +28°C° 0.3 mm 1 mps 686 mmHg 74%
    11:00 +30°C° 0.3 mm 1 mps 686 mmHg 69%
    12:00 +31°C° 0.3 mm 2 mps 686 mmHg 64%
    13:00 +30°C° 2.2 mm 2 mps 686 mmHg 71%
    14:00 +29°C° 2.2 mm 2 mps 685 mmHg 78%
    15:00 +29°C° 2.2 mm 2 mps 684 mmHg 85%
    16:00 +28°C° 1 mm 1 mps 684 mmHg 88%
    17:00 +27°C° 1 mm 1 mps 684 mmHg 91%
    18:00 +26°C° 1 mm 1 mps 684 mmHg 94%
    19:00 +25°C° 0 mm 1 mps 684 mmHg 95%
    20:00 +24°C° 0 mm 1 mps 684 mmHg 95%
    21:00 +23°C° 0 mm 1 mps 685 mmHg 96%
    22:00 +22°C° 0 mm 1 mps 685 mmHg 96%
    23:00 +20°C° 0 mm 0 mps 685 mmHg 96%

    23 January, Wednesday

    Time Temperature Precipitation Wind Pressure Humidity
    00:00 +20°C° 0 mm 0 mps 685 mmHg 96%
    01:00 +19°C° 0 mm 0 mps 684 mmHg 96%
    02:00 +19°C° 0 mm 0 mps 684 mmHg 96%
    03:00 +19°C° 0 mm 0 mps 684 mmHg 97%
    04:00 +19°C° 0 mm 0 mps 684 mmHg 97%
    05:00 +19°C° 0 mm 0 mps 684 mmHg 97%
    06:00 +19°C° 0 mm 0 mps 684 mmHg 97%
    07:00 +21°C° 0 mm 0 mps 685 mmHg 89%
    08:00 +24°C° 0 mm 0 mps 686 mmHg 81%
    09:00 +26°C° 0 mm 0 mps 687 mmHg 73%
    10:00 +28°C° 0.1 mm 0 mps 687 mmHg 67%
    11:00 +31°C° 0.1 mm 1 mps 687 mmHg 62%
    12:00 +33°C° 0.1 mm 1 mps 686 mmHg 56%
    13:00 +31°C° 2.4 mm 1 mps 686 mmHg 66%
    14:00 +29°C° 2.4 mm 2 mps 685 mmHg 77%
    15:00 +27°C° 2.4 mm 3 mps 684 mmHg 87%
    16:00 +27°C° 0.1 mm 2 mps 684 mmHg 87%
    17:00 +27°C° 0.1 mm 2 mps 684 mmHg 86%
    18:00 +26°C° 0.1 mm 1 mps 684 mmHg 86%
    19:00 +25°C° 0.6 mm 1 mps 684 mmHg 89%
    20:00 +24°C° 0.6 mm 1 mps 684 mmHg 92%
    21:00 +23°C° 0.6 mm 1 mps 684 mmHg 95%
    22:00 +22°C° 0.8 mm 1 mps 684 mmHg 96%
    23:00 +22°C° 0.8 mm 1 mps 684 mmHg 96%

    24 January, Thursday

    Time Temperature Precipitation Wind Pressure Humidity
    00:00 +22°C° 0.8 mm 1 mps 684 mmHg 96%
    01:00 +22°C° 0 mm 1 mps 684 mmHg 96%
    02:00 +22°C° 0 mm 1 mps 683 mmHg 96%
    03:00 +22°C° 0 mm 1 mps 683 mmHg 96%
    04:00 +22°C° 0.9 mm 1 mps 683 mmHg 96%
    05:00 +21°C° 0.9 mm 1 mps 683 mmHg 97%
    06:00 +21°C° 0.9 mm 1 mps 684 mmHg 97%
    07:00 +23°C° 0.1 mm 1 mps 684 mmHg 91%
    08:00 +25°C° 0.1 mm 1 mps 685 mmHg 84%
    09:00 +27°C° 0.1 mm 1 mps 686 mmHg 78%
    10:00 +29°C° 1.4 mm 1 mps 685 mmHg 71%
    11:00 +30°C° 1.4 mm 1 mps 685 mmHg 65%
    12:00 +31°C° 1.4 mm 1 mps 685 mmHg 59%
    13:00 +31°C° 1 mm 1 mps 685 mmHg 60%
    14:00 +32°C° 1 mm 1 mps 684 mmHg 60%
    15:00 +32°C° 1 mm 1 mps 684 mmHg 61%
    16:00 +30°C° 2.5 mm 1 mps 683 mmHg 71%
    17:00 +28°C° 2.5 mm 1 mps 683 mmHg 82%
    18:00 +26°C° 2.5 mm 1 mps 683 mmHg 92%
    19:00 +25°C° 4.1 mm 1 mps 683 mmHg 93%
    20:00 +24°C° 4.1 mm 1 mps 683 mmHg 94%
    21:00 +23°C° 4.1 mm 1 mps 683 mmHg 95%
    22:00 +22°C° 0.1 mm 1 mps 684 mmHg 96%
    23:00 +21°C° 0.1 mm 2 mps 684 mmHg 96%
    Show more